User: anonymous   Login
Location: Unspecified
(0.0000°N, 0.0000°E)
Time: 14:19:38
(UTC+02:00)
Language:

Cosmos 1515 Rocket - Orbit

View from above orbital plane
View from above orbital plane
View from above satellite
View from above satellite

Ground track
Ground track

The orbit data is extracted from the following two-line orbital elements,

1 14552U 83122B   16147.89836914  .00000133  00000-0  13282-4 0  9997
2 14552  82.5255  78.2402 0017211 358.3093   1.8061 14.83335166751911
Epoch (UTC): 26 May 2016 21:33:39
Eccentricity: 0.0017211
inclination: 82.5255°
perigee height: 607 km
apogee height: 631 km
right ascension of ascending node: 78.2402°
argument of perigee: 358.3093°
revolutions per day: 14.83335166
mean anomaly at epoch: 1.8061°
orbit number at epoch: 75191

The dashed part of the orbit path shows where the satellite is in the earth's shadow,  

DLR